Location: Sears
(37.7625°N, 100.1060°W)
Time: 06:35:31
(UTC+00:00)

N. Korean satellite - Pass Details

Date: 06 August 2021
Orbit: 449 x 498 km, 97.3° (Epoch: 25 September)

Event Time Altitude Azimuth Distance (km) Brightness Sun altitude
Rises 11:01:20 0° 33° (NNE) 2,523 11.4 -9.2°
Reaches altitude 10° 11:04:10 10° 58° (ENE) 1,627 10.9 -8.8°
Maximum altitude 11:06:09 14° 93° (E) 1,364 9.8 -8.4°
Drops below altitude 10° 11:08:07 10° 128° (SE) 1,604 9.5 -8.1°
Sets 11:10:58 0° 154° (SSE) 2,497 10.2 -7.6°
